FW8756 Weather Reports


Display with metric or nautical units.
time (UTC)temp
F
wind
direction
speed
MPH
gust
MPH
rain 1hr
in
rain 24hr
in
rain mn
in
humidity
%
barometer
mb
20260507120523 61 205 2.0 2.0 0.00 0.00 0.00 86 1014.6
20260507120020 61 261 2.0 3.0 0.00 0.00 0.00 86 1014.2
20260507115516 61 164 1.0 1.0 0.00 0.00 0.00 87 1014.3
20260507115012 61 309 2.0 3.0 0.00 0.00 0.00 87 1014.3
20260507114509 61 308 1.0 1.0 0.00 0.00 0.00 87 1014.5
20260507114006 62 73 0.0 0.0 0.00 0.00 0.00 87 1014.5
20260507113503 62 135 3.0 6.0 0.00 0.00 0.00 87 1014.4
20260507113000 62 102 2.0 2.0 0.00 0.00 0.00 87 1014.3
20260507112458 62 305 5.0 8.0 0.00 0.00 0.00 87 1014.7
20260507111954 62 331 3.0 5.0 0.00 0.00 0.00 87 1014.4
20260507111452 62 216 2.0 2.0 0.00 0.00 0.00 87 1014.1
20260507110948 62 155 0.0 0.0 0.00 0.00 0.00 87 1014.1
20260507110444 62 155 0.0 2.0 0.00 0.00 0.00 87 1013.7
20260507105941 62 49 3.0 6.0 0.00 0.00 0.00 87 1014.0
20260507105438 62 173 0.0 0.0 0.00 0.00 0.00 87 1013.8
20260507104934 62 163 0.0 1.0 0.00 0.00 0.00 87 1013.9
20260507104432 62 149 0.0 0.0 0.00 0.00 0.00 87 1014.0
20260507103927 62 143 1.0 2.0 0.00 0.00 0.00 87 1013.6
20260507103424 62 7 1.0 2.0 0.00 0.00 0.00 87 1013.3
20260507102920 62 78 1.0 2.0 0.00 0.00 0.00 87 1013.2
20260507102417 62 135 1.0 1.0 0.00 0.00 0.00 87 1013.7
20260507101913 62 137 0.0 0.0 0.00 0.00 0.00 87 1013.4
20260507101408 62 285 1.0 1.0 0.00 0.00 0.00 87 1013.3
20260507100905 62 136 0.0 0.0 0.00 0.00 0.00 87 1013.5
20260507100403 62 160 2.0 2.0 0.00 0.00 0.00 87 1013.4
20260507095901 62 126 0.0 0.0 0.00 0.00 0.00 87 1013.2
20260507095357 62 203 1.0 1.0 0.00 0.00 0.00 87 1013.3
20260507094855 62 24 1.0 1.0 0.00 0.00 0.00 86 1012.8
20260507094351 62 94 3.0 5.0 0.00 0.00 0.00 86 1012.2
20260507093848 62 169 1.0 2.0 0.00 0.00 0.00 87 1012.6
20260507093346 63 71 1.0 2.0 0.00 0.00 0.00 87 1012.2
20260507092844 63 109 0.0 0.0 0.00 0.00 0.00 87 1012.1
20260507092340 63 136 1.0 2.0 0.00 0.00 0.00 87 1012.6
20260507091836 63 211 1.0 2.0 0.00 0.00 0.00 88 1012.1
20260507091333 63 166 2.0 2.0 0.00 0.00 0.00 88 1012.1
20260507090829 63 116 1.0 2.0 0.00 0.00 0.00 88 1012.5
20260507090325 64 50 1.0 1.0 0.00 0.00 0.00 88 1013.0
20260507085822 64 37 1.0 1.0 0.00 0.00 0.00 88 1012.9
20260507085319 64 125 1.0 2.0 0.00 0.00 0.00 88 1013.1
20260507084817 64 137 2.0 3.0 0.00 0.00 0.00 88 1012.7
20260507084313 64 184 1.0 1.0 0.00 0.00 0.00 88 1012.7
20260507083810 64 171 2.0 3.0 0.00 0.00 0.00 88 1012.6
20260507083307 64 57 1.0 2.0 0.00 0.00 0.00 88 1012.3
20260507082803 64 279 1.0 2.0 0.00 0.00 0.00 88 1012.3
20260507082259 64 46 1.0 2.0 0.00 0.00 0.00 88 1012.6
20260507081756 64 19 2.0 3.0 0.00 0.00 0.00 88 1012.1
20260507081252 64 161 0.0 1.0 0.00 0.00 0.00 88 1012.6
20260507080749 64 157 1.0 3.0 0.00 0.00 0.00 88 1012.7
20260507080245 64 24 2.0 3.0 0.00 0.00 0.00 88 1012.7
20260507075740 64 187 3.0 6.0 0.00 0.00 0.00 88 1012.7
20260507075237 64 169 1.0 1.0 0.00 0.00 0.00 88 1013.0
20260507074733 64 116 1.0 2.0 0.00 0.00 0.00 88 1012.8
20260507074231 64 298 2.0 2.0 0.00 0.00 0.00 87 1013.2
20260507073727 64 193 1.0 2.0 0.00 0.00 0.00 87 1013.2
20260507073224 64 318 5.0 6.0 0.00 0.00 0.00 87 1012.9
20260507072722 64 185 2.0 2.0 0.00 0.00 0.00 87 1012.2
20260507072219 64 56 3.0 6.0 0.00 0.00 0.00 87 1012.3
20260507071717 65 319 1.0 2.0 0.00 0.00 0.00 87 1013.0
20260507071213 65 151 1.0 1.0 0.00 0.00 0.00 87 1013.1
20260507070710 65 314 6.0 7.0 0.00 0.00 0.00 87 1013.4
20260507070207 65 312 4.0 6.0 0.00 0.00 0.00 86 1013.1
20260507065703 65 308 0.0 0.0 0.00 0.00 0.00 86 1013.4
20260507065200 65 169 1.0 1.0 0.00 0.00 0.00 86 1013.1
20260507064657 65 323 3.0 5.0 0.00 0.00 0.00 86 1013.4
20260507064156 65 321 2.0 2.0 0.00 0.00 0.00 86 1013.3
20260507063653 65 136 2.0 2.0 0.00 0.00 0.00 86 1013.5
20260507063150 65 78 1.0 1.0 0.00 0.00 0.00 86 1013.3
20260507062647 65 160 1.0 2.0 0.00 0.00 0.00 86 1013.2
20260507062144 65 351 4.0 5.0 0.00 0.00 0.00 85 1013.0
20260507061643 65 142 3.0 6.0 0.00 0.00 0.00 85 1013.1
20260507061140 65 157 0.0 1.0 0.00 0.00 0.00 85 1012.8
20260507060638 65 340 1.0 1.0 0.00 0.00 0.00 85 1012.7
20260507060134 65 130 2.0 2.0 0.00 0.00 0.00 85 1013.0
20260507055630 66 49 2.0 2.0 0.00 0.00 0.00 85 1013.0
20260507055126 66 36 0.0 0.0 0.00 0.00 0.00 85 1013.2
20260507054622 66 57 2.0 2.0 0.00 0.00 0.00 85 1013.4
20260507054119 66 62 1.0 1.0 0.00 0.00 0.00 85 1013.2
20260507053617 66 141 0.0 0.0 0.00 0.00 0.00 85 1013.0
20260507053115 66 104 3.0 5.0 0.00 0.00 0.00 85 1012.9
20260507052613 66 163 0.0 0.0 0.00 0.00 0.00 85 1012.8
20260507052109 66 146 1.0 1.0 0.00 0.00 0.00 85 1012.6
20260507051607 66 153 0.0 1.0 0.00 0.00 0.00 84 1013.0
20260507051103 66 107 2.0 3.0 0.00 0.00 0.00 84 1012.5
20260507050600 66 170 1.0 2.0 0.00 0.00 0.00 84 1012.8
20260507050056 66 22 2.0 5.0 0.00 0.00 0.00 84 1012.8
20260507045553 66 180 0.0 1.0 0.00 0.00 0.00 84 1012.9
20260507045051 66 175 1.0 1.0 0.00 0.00 0.00 84 1013.1
20260507044547 66 37 2.0 5.0 0.00 0.00 0.00 84 1013.1
20260507044044 66 251 4.0 5.0 0.00 0.00 0.00 84 1013.0
20260507043539 66 148 0.0 0.0 0.00 0.00 0.00 84 1012.9
20260507043037 66 99 3.0 3.0 0.00 0.00 0.00 84 1012.6
20260507042533 66 158 1.0 2.0 0.00 0.00 0.00 84 1012.5
20260507042029 66 104 3.0 5.0 0.00 0.00 0.00 84 1012.6
20260507041526 66 164 0.0 0.0 0.00 0.00 0.00 84 1012.5
20260507041023 66 41 1.0 1.0 0.00 0.00 0.00 84 1012.5
20260507040519 66 67 3.0 7.0 0.00 0.00 0.00 83 1012.7
20260507040015 67 136 2.0 2.0 0.00 0.00 0.00 83 1012.5
20260507035511 67 99 1.0 2.0 0.00 0.00 0.00 83 1012.8
20260507035008 67 356 5.0 7.0 0.00 0.00 0.00 83 1013.0
20260507034505 67 162 0.0 1.0 0.00 0.00 0.00 83 1012.7
20260507034003 67 96 0.0 1.0 0.00 0.00 0.00 83 1012.7
20260507033501 67 5 2.0 2.0 0.00 0.00 0.00 83 1012.5
20260507032957 67 12 3.0 5.0 0.00 0.00 0.00 83 1012.1
20260507032454 67 337 3.0 5.0 0.00 0.00 0.00 82 1011.9
20260507031950 67 108 1.0 2.0 0.00 0.00 0.00 82 1012.0
20260507031447 67 1 1.0 1.0 0.00 0.00 0.00 82 1012.0
20260507030944 67 154 0.0 1.0 0.00 0.00 0.00 82 1012.0
20260507030441 67 179 2.0 3.0 0.00 0.00 0.00 82 1011.7
20260507025938 67 163 1.0 3.0 0.00 0.00 0.00 82 1011.5
20260507025435 68 139 1.0 1.0 0.00 0.00 0.00 82 1011.4
20260507024933 68 164 2.0 2.0 0.00 0.00 0.00 83 1011.2
20260507024430 68 58 1.0 1.0 0.00 0.00 0.00 83 1011.2
20260507023926 68 15 1.0 1.0 0.00 0.00 0.00 83 1011.2
20260507023423 68 326 3.0 5.0 0.00 0.00 0.00 83 1011.2
20260507022920 69 140 1.0 2.0 0.00 0.00 0.00 82 1011.0
20260507022417 69 151 0.0 0.0 0.00 0.00 0.00 82 1010.9
20260507021913 69 339 1.0 3.0 0.00 0.00 0.00 82 1010.6
20260507021408 69 68 1.0 2.0 0.00 0.00 0.00 82 1010.7
20260507020906 69 198 3.0 3.0 0.00 0.00 0.00 82 1010.4
20260507020403 69 136 1.0 1.0 0.00 0.00 0.00 82 1010.3
20260507015900 69 340 3.0 7.0 0.00 0.00 0.00 81 1010.5
20260507015358 70 158 1.0 1.0 0.00 0.00 0.00 81 1010.3
20260507014854 70 320 5.0 6.0 0.00 0.00 0.00 81 1010.1
20260507014350 70 160 1.0 1.0 0.00 0.00 0.00 82 1010.0
20260507013847 70 180 1.0 1.0 0.00 0.00 0.00 81 1010.0
20260507013344 70 50 2.0 5.0 0.00 0.00 0.00 81 1010.1
20260507012842 70 70 3.0 6.0 0.00 0.00 0.00 81 1010.0
20260507012337 71 161 1.0 1.0 0.00 0.00 0.00 81 1009.7
20260507011834 71 157 2.0 3.0 0.00 0.00 0.00 81 1009.9
20260507011332 71 343 0.0 0.0 0.00 0.00 0.00 82 1009.7
20260507010826 71 192 1.0 3.0 0.00 0.00 0.00 82 1009.6
20260507010321 71 340 2.0 2.0 0.00 0.00 0.00 82 1009.7
20260507005819 72 185 3.0 5.0 0.00 0.00 0.00 81 1009.4
20260507005316 72 143 1.0 2.0 0.00 0.00 0.00 81 1009.5
20260507004807 72 55 1.0 2.0 0.00 0.00 0.00 81 1009.2
20260507004304 72 14 3.0 3.0 0.00 0.00 0.00 81 1009.4
20260507003801 73 152 2.0 3.0 0.00 0.00 0.00 81 1009.3
20260507003255 73 194 2.0 3.0 0.00 0.00 0.00 80 1008.9
20260507002751 73 179 0.0 1.0 0.00 0.00 0.00 80 1008.9
20260507002248 73 265 4.0 6.0 0.00 0.00 0.00 80 1008.8
20260507001745 74 153 1.0 3.0 0.00 0.00 0.00 81 1008.8
20260507001242 74 150 2.0 3.0 0.00 0.00 0.00 81 1008.6
20260507000738 74 346 4.0 5.0 0.00 0.00 0.00 81 1009.0
20260507000234 74 140 1.0 2.0 0.00 0.00 0.00 81 1008.6
20260506235731 74 163 0.0 0.0 0.00 0.00 0.00 81 1008.5
20260506235226 74 131 2.0 3.0 0.00 0.00 0.00 81 1008.6
20260506234724 75 51 1.0 2.0 0.00 0.00 0.00 81 1008.6
20260506234221 75 48 3.0 6.0 0.00 0.00 0.00 81 1008.4
20260506233719 75 63 6.0 8.0 0.00 0.00 0.00 81 1008.6
20260506233215 75 333 1.0 2.0 0.00 0.00 0.00 81 1008.2
20260506232711 76 319 4.0 8.0 0.00 0.00 0.00 81 1008.2
20260506232206 77 160 5.0 10.0 0.00 0.00 0.00 80 1008.1
20260506231704 77 239 4.0 6.0 0.00 0.00 0.00 80 1007.9
20260506231203 77 251 5.0 9.0 0.00 0.00 0.00 80 1008.1
20260506230658 78 21 2.0 3.0 0.00 0.00 0.00 80 1007.9
20260506230155 80 233 0.0 1.0 0.00 0.00 0.00 79 1007.8
20260506225652 82 339 4.0 9.0 0.00 0.00 0.00 78 1007.9
20260506225149 85 337 3.0 5.0 0.00 0.00 0.00 75 1007.7
20260506224645 86 156 1.0 2.0 0.00 0.00 0.00 75 1007.5
20260506224142 86 185 0.0 0.0 0.00 0.00 0.00 74 1007.4
20260506223638 86 150 0.0 0.0 0.00 0.00 0.00 74 1007.3
20260506223134 86 149 0.0 0.0 0.00 0.00 0.00 74 1007.3
20260506222631 86 163 0.0 0.0 0.00 0.00 0.00 74 1007.2
20260506222128 86 154 0.0 0.0 0.00 0.00 0.00 74 1007.2
20260506221625 86 183 0.0 0.0 0.00 0.00 0.00 75 1007.5
20260506221123 86 233 2.0 2.0 0.00 0.00 0.00 75 1007.3
20260506220620 86 158 0.0 0.0 0.00 0.00 0.00 75 1007.3
20260506220115 87 158 0.0 0.0 0.00 0.00 0.00 74 1007.0
20260506215612 86 162 0.0 0.0 0.00 0.00 0.00 74 1007.2
20260506215107 86 156 0.0 0.0 0.00 0.00 0.00 74 1007.4
20260506214605 85 161 0.0 0.0 0.00 0.00 0.00 75 1007.2
20260506214102 86 179 0.0 0.0 0.00 0.00 0.00 74 1007.3
20260506213600 86 181 0.0 0.0 0.00 0.00 0.00 73 1007.2
20260506213057 86 165 0.0 0.0 0.00 0.00 0.00 75 1007.4
20260506212554 85 229 1.0 2.0 0.00 0.00 0.00 74 1007.4
20260506212048 86 155 0.0 0.0 0.00 0.00 0.00 75 1007.3
20260506211545 86 174 0.0 0.0 0.00 0.00 0.00 74 1007.4
20260506211042 85 215 0.0 1.0 0.00 0.00 0.00 74 1007.4
20260506210538 86 169 0.0 0.0 0.00 0.00 0.00 74 1007.3
20260506210035 86 185 1.0 2.0 0.00 0.00 0.00 74 1007.6
20260506205532 85 162 0.0 0.0 0.00 0.00 0.00 76 1007.6
20260506205027 87 165 0.0 0.0 0.00 0.00 0.00 73 1007.6
20260506204525 86 186 1.0 2.0 0.00 0.00 0.00 73 1007.6
20260506204022 86 235 0.0 1.0 0.00 0.00 0.00 75 1007.5
20260506203520 86 165 0.0 0.0 0.00 0.00 0.00 75 1007.4
20260506203016 86 201 3.0 3.0 0.00 0.00 0.00 75 1007.5
20260506202514 85 159 0.0 0.0 0.00 0.00 0.00 76 1007.6
20260506202010 85 145 0.0 0.0 0.00 0.00 0.00 76 1007.6
20260506201508 86 145 0.0 1.0 0.00 0.00 0.00 75 1007.7
20260506201004 85 184 0.0 0.0 0.00 0.00 0.00 76 1007.8
20260506200501 85 175 1.0 2.0 0.00 0.00 0.00 76 1008.0
20260506195957 84 175 0.0 0.0 0.00 0.00 0.00 78 1008.1
20260506195454 83 158 0.0 0.0 0.00 0.00 0.00 80 1008.0
20260506194950 82 163 0.0 0.0 0.00 0.00 0.00 81 1008.2
20260506194448 82 150 0.0 0.0 0.00 0.00 0.00 81 1008.2
20260506193944 83 155 0.0 0.0 0.00 0.00 0.00 80 1008.3
20260506193442 83 151 0.0 0.0 0.00 0.00 0.00 79 1008.3
20260506192938 83 157 0.0 0.0 0.00 0.00 0.00 79 1008.4
20260506192435 83 155 0.0 0.0 0.00 0.00 0.00 78 1008.2
20260506191932 84 162 0.0 0.0 0.00 0.00 0.00 78 1008.1
20260506191429 84 159 0.0 0.0 0.00 0.00 0.00 77 1008.4
20260506190925 84 153 0.0 0.0 0.00 0.00 0.00 78 1008.3
20260506190422 83 162 0.0 0.0 0.00 0.00 0.00 78 1008.3
20260506185919 83 158 0.0 0.0 0.00 0.00 0.00 79 1008.1
20260506185416 84 147 6.0 7.0 0.00 0.00 0.00 77 1008.2
20260506184913 84 184 0.0 1.0 0.00 0.00 0.00 78 1008.2
20260506184410 83 158 0.0 0.0 0.00 0.00 0.00 79 1008.2
20260506183908 82 137 0.0 0.0 0.00 0.00 0.00 80 1008.5
20260506183402 82 153 0.0 0.0 0.00 0.00 0.00 80 1008.5
20260506182900 82 56 1.0 1.0 0.00 0.00 0.00 81 1008.7
20260506182357 82 90 2.0 3.0 0.00 0.00 0.00 80 1008.6
20260506181854 82 158 3.0 3.0 0.00 0.00 0.00 79 1008.9
20260506181352 82 145 1.0 1.0 0.00 0.00 0.00 81 1008.8
20260506180849 81 161 0.0 0.0 0.00 0.00 0.00 81 1009.0
20260506180345 81 146 0.0 0.0 0.00 0.00 0.00 81 1009.3
20260506175842 82 135 0.0 0.0 0.00 0.00 0.00 80 1009.4
20260506175338 82 147 0.0 0.0 0.00 0.00 0.00 81 1009.6
20260506174835 81 154 0.0 0.0 0.00 0.00 0.00 82 1009.7
20260506174333 81 152 0.0 0.0 0.00 0.00 0.00 83 1009.9
20260506173831 80 153 0.0 0.0 0.00 0.00 0.00 83 1010.0
20260506173327 80 154 0.0 0.0 0.00 0.00 0.00 83 1010.2
20260506172824 80 157 0.0 0.0 0.00 0.00 0.00 82 1010.3
20260506172321 81 142 0.0 0.0 0.00 0.00 0.00 81 1010.1
20260506171818 81 154 0.0 0.0 0.00 0.00 0.00 82 1010.0
20260506171315 82 147 0.0 0.0 0.00 0.00 0.00 81 1010.1
20260506170813 82 155 0.0 0.0 0.00 0.00 0.00 80 1010.2
20260506170308 82 155 0.0 0.0 0.00 0.00 0.00 81 1010.2
20260506165808 81 152 0.0 0.0 0.00 0.00 0.00 81 1010.2
20260506165306 81 153 0.0 0.0 0.00 0.00 0.00 82 1010.2
20260506164801 81 156 0.0 0.0 0.00 0.00 0.00 81 1010.1
20260506164258 82 144 2.0 2.0 0.00 0.00 0.00 80 1010.0
20260506163755 82 168 0.0 0.0 0.00 0.00 0.00 80 1010.0
20260506163250 82 184 1.0 1.0 0.00 0.00 0.00 79 1010.0
20260506162746 82 237 1.0 2.0 0.00 0.00 0.00 79 1009.7
20260506162244 82 152 0.0 0.0 0.00 0.00 0.00 79 1009.6
20260506161741 83 223 2.0 3.0 0.00 0.00 0.00 79 1009.5
20260506161239 82 150 0.0 0.0 0.00 0.00 0.00 81 1009.3
20260506160736 82 161 2.0 3.0 0.00 0.00 0.00 80 1009.3
20260506160232 82 170 2.0 3.0 0.00 0.00 0.00 80 1009.4
20260506155731 82 131 2.0 3.0 0.00 0.00 0.00 80 1009.1
20260506155227 82 198 1.0 2.0 0.00 0.00 0.00 80 1009.2
20260506153335 82 152 3.0 3.0 0.00 0.00 0.00 81 1009.2
20260506152832 81 163 0.0 0.0 0.00 0.00 0.00 81 1009.5
20260506152329 81 152 0.0 0.0 0.00 0.00 0.00 82 1009.4
20260506151828 80 143 0.0 1.0 0.00 0.00 0.00 83 1009.3
20260506151324 80 175 1.0 2.0 0.00 0.00 0.00 82 1009.5
20260506150821 80 161 0.0 0.0 0.00 0.00 0.00 83 1009.5
20260506150318 80 167 0.0 0.0 0.00 0.00 0.00 83 1009.6
20260506145814 80 150 0.0 0.0 0.00 0.00 0.00 84 1009.3
20260506145311 79 140 0.0 0.0 0.00 0.00 0.00 85 1009.1
20260506144809 79 162 0.0 0.0 0.00 0.00 0.00 86 1008.9
20260506144305 78 157 0.0 0.0 0.00 0.00 0.00 86 1008.8
20260506143803 78 151 0.0 0.0 0.00 0.00 0.00 87 1008.9
20260506143300 78 148 0.0 0.0 0.00 0.00 0.00 87 1008.8
20260506142758 78 155 0.0 0.0 0.00 0.00 0.00 87 1009.0
20260506142256 78 138 2.0 3.0 0.00 0.00 0.00 87 1008.9
20260506141754 78 182 1.0 3.0 0.00 0.00 0.00 88 1008.8
20260506141252 77 156 0.0 0.0 0.00 0.00 0.00 88 1008.9
20260506140749 77 200 1.0 2.0 0.00 0.00 0.00 88 1008.8
20260506140246 77 155 1.0 3.0 0.00 0.00 0.00 89 1008.9
20260506135743 77 170 0.0 0.0 0.00 0.00 0.00 89 1009.0
20260506135239 77 145 0.0 0.0 0.00 0.00 0.00 89 1008.9
20260506134736 77 125 0.0 1.0 0.00 0.00 0.00 89 1008.9
20260506134233 77 157 0.0 0.0 0.00 0.00 0.00 89 1008.8
20260506133730 77 153 0.0 0.0 0.00 0.00 0.00 89 1008.9
20260506133226 77 158 1.0 1.0 0.00 0.00 0.00 89 1009.1
20260506132723 76 161 0.0 0.0 0.00 0.00 0.00 89 1009.0
20260506132220 76 129 0.0 0.0 0.00 0.00 0.00 89 1008.9
20260506131718 76 151 0.0 0.0 0.00 0.00 0.00 89 1009.0
20260506131214 76 147 0.0 1.0 0.00 0.00 0.00 89 1009.0
20260506130711 76 146 0.0 0.0 0.00 0.00 0.00 89 1009.1
20260506130208 76 148 0.0 0.0 0.00 0.00 0.00 89 1008.9
20260506125706 76 156 0.0 0.0 0.00 0.00 0.00 89 1009.2
20260506125204 76 154 0.0 0.0 0.00 0.00 0.00 89 1008.8
20260506124702 76 160 0.0 0.0 0.00 0.00 0.00 89 1008.8
20260506124159 76 130 0.0 0.0 0.00 0.00 0.00 89 1008.6
20260506123656 76 141 0.0 0.0 0.00 0.00 0.00 89 1008.8
20260506123155 76 138 0.0 0.0 0.00 0.00 0.00 89 1008.6
20260506122652 76 154 0.0 0.0 0.00 0.00 0.00 89 1008.6
20260506122149 76 146 0.0 0.0 0.00 0.00 0.00 89 1008.6
20260506121647 76 152 0.0 0.0 0.00 0.00 0.00 89 1008.6
20260506121143 76 157 0.0 0.0 0.00 0.00 0.00 89 1008.5
20260506120641 76 154 0.0 0.0 0.00 0.00 0.00 89 1008.3